period_start,C,m1,H,J0,J1,J2,J3,J4,J5,JA,JB,JC,JD,JJ,JK,JN,#
2015-11-21 00:00:46,0.11,1.44,0.00,13.74,18.17,22.09,15.31,49.61,1025.41,2071.00,3120.27,2844.94,3141.26,600.20,620.64,9.59,0000 0000 0000 0000 000000
2015-11-21 00:05:47,0.14,1.45,0.00,13.76,18.19,22.07,15.23,49.66,1025.41,2071.00,3118.03,2843.13,3139.21,600.21,620.68,9.64,0000 0000 0000 0000 000000
2015-11-21 00:10:48,0.11,1.45,0.00,13.76,18.19,22.13,15.30,49.75,1025.42,2071.00,3115.97,2841.36,3137.28,599.98,620.45,9.69,0000 0000 0000 0000 000000
2015-11-21 00:15:50,0.13,1.46,0.00,13.78,18.20,22.12,15.24,49.63,1025.49,2071.00,3113.71,2839.59,3135.34,600.01,620.51,9.74,0000 0000 0000 0000 000000
2015-11-21 00:20:51,0.18,1.47,0.00,13.77,18.21,22.13,15.27,49.92,1025.51,2071.00,3111.03,2837.12,3133.10,599.91,620.44,9.79,0000 0000 0000 0000 000000
2015-11-21 00:25:52,0.17,1.48,0.00,13.79,18.22,22.08,15.21,49.80,1025.53,2071.00,3108.18,2834.60,3130.33,600.10,620.63,9.84,0000 0000 0000 0000 000000
2015-11-21 00:30:53,0.17,1.48,0.00,13.78,18.22,22.10,15.32,49.84,1025.42,2070.99,3105.35,2832.24,3127.67,600.35,620.89,9.89,0000 0000 0000 0000 000000
2015-11-21 00:35:55,0.15,1.49,0.00,13.78,18.22,22.13,15.24,49.88,1025.41,2070.99,3102.66,2829.81,3125.31,600.13,620.66,9.94,0000 0000 0000 0000 000000
2015-11-21 00:40:56,0.15,1.50,0.00,13.80,18.24,22.16,15.23,50.03,1025.40,2070.99,3100.02,2827.73,3123.09,599.88,620.33,9.99,0000 0000 0000 0000 000000
2015-11-21 00:45:57,0.13,1.51,0.00,13.78,18.24,22.12,15.22,49.98,1025.38,2070.98,3097.64,2825.75,3120.94,599.92,620.44,10.04,0000 0000 0000 0000 000000
2015-11-21 00:50:59,0.16,1.51,0.00,13.75,18.24,22.23,15.26,49.96,1025.33,2070.98,3094.92,2823.56,3118.58,600.22,620.75,10.09,0000 0000 0000 0000 000000
2015-11-21 00:56:00,0.16,1.52,0.00,13.77,18.24,22.23,15.24,49.51,1025.68,2070.96,3092.22,2821.13,3116.02,599.95,620.66,10.14,0000 0000 0000 0000 000000
2015-11-21 01:01:01,0.12,1.53,0.00,13.87,18.26,22.12,15.27,49.77,1025.87,2070.94,3089.97,2819.29,3113.87,600.15,620.73,10.19,0000 0000 0000 0000 000000
2015-11-21 01:06:02,0.13,1.54,0.00,14.00,18.27,22.23,15.21,49.90,1025.73,2070.96,3087.65,2817.50,3111.97,600.08,620.36,10.24,0000 0000 0000 0000 000000
2015-11-21 01:11:04,0.12,1.54,0.00,14.13,18.28,22.19,15.23,49.52,1025.81,2070.92,3085.29,2815.77,3110.06,600.21,620.20,10.29,0000 0000 0000 0000 000000
2015-11-21 01:16:05,0.13,1.55,0.00,14.26,18.30,22.12,15.16,49.73,1025.69,2070.84,3082.73,2813.88,3107.89,600.00,619.66,10.34,0000 0000 0000 0000 000000
2015-11-21 01:21:06,0.11,1.56,0.00,14.38,18.32,22.07,15.21,50.13,1025.42,2070.58,3080.27,2811.91,3105.75,599.89,619.12,10.39,0000 0000 0000 0000 000000
2015-11-21 01:26:07,0.16,1.56,0.00,14.50,18.34,22.02,15.19,49.76,1025.41,2070.34,3077.38,2809.45,3103.06,600.31,619.24,10.44,0000 0000 0000 0000 000000
2015-11-21 01:31:08,0.15,1.57,0.00,14.59,18.37,22.11,15.15,49.70,1025.43,2070.07,3074.44,2806.97,3100.27,600.29,619.08,10.49,0000 0000 0000 0000 000000
2015-11-21 01:36:10,0.18,1.58,0.00,14.63,18.39,22.07,15.18,49.77,1025.73,2070.02,3071.55,2804.42,3097.49,599.89,618.79,10.54,0000 0000 0000 0000 000000
2015-11-21 01:41:11,0.18,1.59,0.00,14.72,18.42,22.09,15.17,49.55,1025.89,2070.01,3068.82,2801.80,3094.86,600.10,618.94,10.59,0000 0000 0000 0000 000000
2015-11-21 01:46:13,0.14,1.60,0.00,14.80,18.45,22.08,15.12,49.26,1025.90,2070.00,3066.42,2799.75,3092.41,600.14,618.67,10.64,0000 0000 0000 0000 000000
2015-11-21 01:51:14,0.19,1.60,0.00,14.87,18.48,22.06,15.09,49.55,1025.87,2070.00,3063.60,2797.55,3089.95,599.91,618.35,10.69,0000 0000 0000 0000 000000
2015-11-21 01:56:15,0.22,1.62,0.00,14.94,18.52,22.14,15.16,50.08,1025.56,2069.99,3059.87,2794.19,3086.41,600.00,618.11,10.74,0000 0000 0000 0000 000000
2015-11-21 02:01:16,0.26,1.63,0.00,14.98,18.55,22.15,15.03,49.87,1025.45,2069.98,3055.80,2790.46,3082.27,599.84,617.93,10.79,0000 0000 0000 0000 000000
2015-11-21 02:06:18,0.22,1.64,0.00,15.02,18.58,22.18,15.14,50.31,1025.40,2069.92,3052.24,2787.02,3078.63,600.07,618.00,10.84,0000 0000 0000 0000 000000
2015-11-21 02:11:19,0.13,1.65,0.00,15.05,18.62,22.23,15.13,49.93,1025.09,2069.56,3049.36,2784.36,3075.70,599.98,617.56,10.89,0000 0000 0000 0000 000000
2015-11-21 02:16:20,0.13,1.66,0.00,15.07,18.65,22.31,15.14,49.89,1024.92,2069.07,3046.57,2781.97,3073.11,600.02,617.46,10.94,0000 0000 0000 0000 000000
2015-11-21 02:21:22,0.20,1.66,0.00,15.09,18.69,22.34,15.12,50.52,1024.60,2069.01,3043.40,2779.25,3070.30,599.99,617.19,10.99,0000 0000 0000 0000 000000
2015-11-21 02:26:23,0.26,1.68,0.00,15.12,18.72,22.32,15.12,50.57,1024.44,2069.00,3039.47,2775.59,3066.32,600.00,617.19,11.04,0000 0000 0000 0000 000000
2015-11-21 02:31:24,0.24,1.69,0.00,15.12,18.75,22.37,15.10,50.50,1024.84,2069.00,3035.52,2772.04,3062.44,599.93,617.22,11.09,0000 0000 0000 0000 000000
2015-11-21 02:36:25,0.22,1.70,0.00,15.12,18.78,22.42,15.10,50.16,1025.19,2068.98,3032.20,2768.64,3058.93,599.93,617.42,11.14,0000 0000 0000 0000 000000
2015-11-21 02:41:27,0.17,1.71,0.00,15.13,18.82,22.50,15.11,50.04,1025.54,2068.95,3029.30,2765.98,3056.18,600.12,617.53,11.19,0000 0000 0000 0000 000000
2015-11-21 02:46:28,0.13,1.72,0.00,15.14,18.85,22.52,15.14,49.79,1025.94,2068.56,3026.33,2763.23,3053.41,599.98,617.88,11.24,0000 0000 0000 0000 000000
2015-11-21 02:51:29,0.14,1.73,0.00,15.16,18.88,22.56,15.12,49.43,1026.24,2068.17,3023.46,2760.94,3050.90,599.84,617.87,11.29,0000 0000 0000 0000 000000
2015-11-21 02:56:30,0.15,1.73,0.00,15.19,18.91,22.58,15.10,49.58,1026.01,2068.05,3020.96,2758.98,3048.73,600.14,617.99,11.34,0000 0000 0000 0000 000000
2015-11-21 03:01:32,0.19,1.74,0.00,15.22,18.94,22.61,15.03,49.81,1025.93,2068.01,3017.86,2756.54,3045.82,599.25,616.99,11.39,0000 0000 0000 0000 000000
2015-11-21 03:06:33,0.16,1.75,0.00,15.24,18.98,22.69,15.10,49.67,1025.90,2068.00,3014.90,2754.16,3043.12,600.13,617.81,11.44,0000 0000 0000 0000 000000
2015-11-21 03:11:34,0.16,1.76,0.00,15.27,19.01,22.76,15.14,50.03,1025.76,2068.00,3012.23,2752.10,3040.73,599.98,617.47,11.49,0000 0000 0000 0000 000000
2015-11-21 03:16:36,0.21,1.77,0.00,15.28,19.04,22.76,15.07,49.92,1025.39,2067.96,3009.01,2749.49,3037.69,599.97,617.23,11.54,0000 0000 0000 0000 000000
2015-11-21 03:21:37,0.21,1.78,0.00,15.29,19.07,22.85,15.11,50.21,1025.29,2067.92,3005.64,2746.49,3034.28,600.16,617.24,11.59,0000 0000 0000 0000 000000
2015-11-21 03:26:38,0.12,1.79,0.00,15.32,19.10,22.86,15.16,49.71,1025.31,2067.46,3002.63,2743.91,3031.31,600.13,617.38,11.65,0000 0000 0000 0000 000000
2015-11-21 03:31:39,0.16,1.80,0.00,15.34,19.13,22.90,15.11,49.72,1025.69,2067.21,2999.75,2741.57,3028.81,600.09,617.47,11.70,0000 0000 0000 0000 000000
2015-11-21 03:36:41,0.15,1.81,0.00,15.37,19.16,22.99,15.02,49.40,1026.21,2067.05,2997.15,2739.35,3026.37,599.80,617.30,11.75,0000 0000 0000 0000 000000
2015-11-21 03:41:42,0.16,1.81,0.00,15.39,19.19,22.97,15.08,49.53,1026.00,2067.00,2994.46,2737.25,3024.11,600.02,617.38,11.80,0000 0000 0000 0000 000000
2015-11-21 03:46:44,0.16,1.82,0.00,15.42,19.22,23.01,15.08,49.44,1025.95,2067.00,2991.71,2735.02,3021.61,600.13,617.50,11.85,0000 0000 0000 0000 000000
2015-11-21 03:51:45,0.16,1.83,0.00,15.45,19.25,23.01,15.12,49.33,1025.91,2066.99,2989.04,2732.99,3019.35,600.14,617.37,11.90,0000 0000 0000 0000 000000
2015-11-21 03:56:46,0.16,1.84,0.00,15.48,19.28,22.97,15.18,49.47,1025.92,2066.98,2986.27,2730.89,3016.98,600.55,617.62,11.95,0000 0000 0000 0000 000000
2015-11-21 04:01:48,0.15,1.85,0.00,15.52,19.30,23.05,15.06,49.32,1025.96,2066.96,2983.41,2728.80,3014.57,599.74,616.84,12.00,0000 0000 0000 0000 000000
2015-11-21 04:06:49,0.12,1.85,0.00,15.55,19.33,23.04,15.06,49.47,1025.88,2066.64,2980.66,2726.66,3012.23,600.12,617.10,12.05,0000 0000 0000 0000 000000
2015-11-21 04:11:50,0.14,1.86,0.00,15.59,19.37,23.07,15.12,49.41,1025.88,2066.18,2977.67,2724.35,3009.71,600.36,617.28,12.10,0000 0000 0000 0000 000000
2015-11-21 04:16:52,0.15,1.87,0.00,15.63,19.40,23.15,15.02,49.27,1025.90,2066.04,2974.90,2722.29,3007.46,599.63,616.51,12.15,0000 0000 0000 0000 000000
2015-11-21 04:21:53,0.19,1.88,0.00,15.67,19.43,23.15,15.03,49.47,1025.89,2066.02,2971.68,2719.89,3004.88,599.68,616.41,12.20,0000 0000 0000 0000 000000
2015-11-21 04:26:54,0.19,1.89,0.00,15.70,19.46,23.14,15.08,49.85,1025.70,2066.01,2968.55,2717.33,3002.09,600.32,616.88,12.25,0000 0000 0000 0000 000000
2015-11-21 04:31:55,0.21,1.90,0.00,15.72,19.49,23.19,15.01,49.75,1025.58,2065.99,2965.29,2714.55,2999.04,599.82,616.22,12.30,0000 0000 0000 0000 000000
2015-11-21 04:36:56,0.20,1.91,0.00,15.74,19.52,23.21,15.05,49.64,1025.69,2065.98,2962.04,2711.95,2996.18,599.87,616.45,12.35,0000 0000 0000 0000 000000
2015-11-21 04:41:57,0.23,1.92,0.00,15.76,19.55,23.27,15.03,49.58,1025.84,2065.98,2958.52,2709.15,2993.15,599.81,616.26,12.40,0000 0000 0000 0000 000000
2015-11-21 04:46:59,0.18,1.93,0.00,15.79,19.58,23.26,15.07,49.58,1025.95,2065.90,2955.42,2706.31,2990.10,600.03,616.54,12.45,0000 0000 0000 0000 000000
2015-11-21 04:52:00,0.11,1.93,0.00,15.83,19.61,23.29,15.04,49.37,1026.00,2065.36,2952.60,2704.09,2987.49,599.84,616.32,12.50,0000 0000 0000 0000 000000
2015-11-21 04:57:02,0.13,1.94,0.00,15.86,19.63,23.32,15.05,49.35,1026.06,2065.09,2950.05,2702.05,2985.22,599.83,616.25,12.55,0000 0000 0000 0000 000000
2015-11-21 05:02:03,0.14,1.95,0.00,15.90,19.67,23.33,15.07,49.32,1026.03,2065.02,2947.65,2700.16,2983.05,600.05,616.33,12.60,0000 0000 0000 0000 000000
2015-11-21 05:07:04,0.16,1.96,0.00,15.94,19.70,23.38,15.10,49.29,1026.13,2065.00,2945.17,2698.04,2980.80,600.15,616.45,12.65,0000 0000 0000 0000 000000
2015-11-21 05:12:05,0.15,1.96,0.00,15.98,19.73,23.38,15.06,49.52,1026.07,2065.00,2942.75,2695.92,2978.43,599.91,616.04,12.70,0000 0000 0000 0000 000000
2015-11-21 05:17:07,0.17,1.97,0.00,16.03,19.76,23.36,15.05,49.54,1025.96,2064.97,2939.98,2693.76,2975.94,600.14,616.21,12.75,0000 0000 0000 0000 000000
2015-11-21 05:22:08,0.16,1.98,0.00,16.06,19.79,23.42,15.15,49.80,1025.92,2064.87,2937.20,2691.44,2973.27,600.27,616.20,12.80,0000 0000 0000 0000 000000
2015-11-21 05:27:09,0.10,1.99,0.00,16.10,19.83,23.41,15.06,49.38,1025.96,2064.52,2934.74,2689.34,2970.87,600.02,615.89,12.85,0000 0000 0000 0000 000000
2015-11-21 05:32:10,0.11,1.99,0.00,16.13,19.86,23.47,15.05,49.43,1025.90,2064.13,2932.63,2687.67,2968.95,600.15,615.93,12.90,0000 0000 0000 0000 000000
2015-11-21 05:37:11,0.14,2.00,0.00,16.17,19.89,23.46,15.07,49.28,1025.87,2064.01,2930.08,2685.82,2966.73,599.94,615.38,12.95,0000 0000 0000 0000 000000
2015-11-21 05:42:12,0.17,2.01,0.00,16.21,19.92,23.50,15.05,49.33,1025.88,2064.00,2927.32,2683.60,2964.33,599.74,615.35,13.00,0000 0000 0000 0000 000000
2015-11-21 05:47:14,0.23,2.02,0.00,16.24,19.96,23.53,15.05,49.47,1025.76,2064.00,2924.16,2680.85,2961.51,599.83,615.28,13.05,0000 0000 0000 0000 000000
2015-11-21 05:52:15,0.23,2.03,0.00,16.28,19.99,23.55,15.04,49.87,1025.59,2063.99,2920.31,2677.83,2957.91,600.13,615.33,13.10,0000 0000 0000 0000 000000
2015-11-21 05:57:16,0.16,2.04,0.00,16.29,20.02,23.58,14.98,50.04,1025.48,2063.94,2917.64,2675.36,2955.14,599.85,614.91,13.15,0000 0000 0000 0000 000000
2015-11-21 06:02:18,0.11,2.05,0.00,16.31,20.05,23.63,15.06,49.45,1026.30,2063.58,2915.20,2673.39,2952.89,600.11,615.73,13.20,0000 0000 0000 0000 000000
2015-11-21 06:07:19,0.14,2.05,0.00,16.33,20.08,23.67,15.11,49.63,1026.05,2063.19,2912.47,2671.30,2950.52,600.26,615.68,13.25,0000 0000 0000 0000 000000
2015-11-21 06:12:20,0.16,2.06,0.00,16.36,20.11,23.72,15.06,49.52,1025.86,2063.03,2909.64,2669.07,2948.01,600.13,615.40,13.30,0000 0000 0000 0000 000000
2015-11-21 06:17:21,0.19,2.07,0.00,16.39,20.14,23.74,15.02,49.59,1025.73,2063.01,2906.59,2666.54,2945.33,600.05,615.11,13.35,0000 0000 0000 0000 000000
2015-11-21 06:22:23,0.18,2.08,0.00,16.42,20.17,23.76,15.04,49.58,1025.45,2063.00,2903.74,2664.28,2942.84,600.23,615.14,13.40,0000 0000 0000 0000 000000
2015-11-21 06:27:24,0.20,2.09,0.00,16.44,20.19,23.77,15.00,49.90,1025.35,2063.00,2900.42,2661.69,2939.97,600.05,614.75,13.45,0000 0000 0000 0000 000000
2015-11-21 06:32:26,0.21,2.10,0.00,16.45,20.22,23.84,15.05,50.00,1025.05,2062.99,2897.30,2658.87,2936.81,600.03,614.47,13.50,0000 0000 0000 0000 000000
2015-11-21 06:37:27,0.19,2.11,0.00,16.47,20.25,23.88,14.98,50.06,1024.84,2062.98,2894.40,2656.43,2934.02,599.79,614.23,13.55,0000 0000 0000 0000 000000
2015-11-21 06:42:28,0.26,2.12,0.00,16.47,20.28,23.95,15.02,50.27,1025.17,2062.97,2890.65,2653.19,2930.50,600.10,614.85,13.60,0000 0000 0000 0000 000000
2015-11-21 06:47:29,0.12,2.13,0.00,16.48,20.30,23.93,15.09,50.22,1025.34,2062.47,2887.75,2650.54,2927.56,600.06,614.74,13.65,0000 0000 0000 0000 000000
2015-11-21 06:52:31,0.18,2.14,0.00,16.48,20.33,24.00,15.01,50.37,1024.77,2062.16,2884.83,2648.17,2924.92,600.25,614.54,13.70,0000 0000 0000 0000 000000
2015-11-21 06:57:32,0.25,2.15,0.00,16.47,20.35,24.01,15.04,50.68,1024.08,2062.07,2881.30,2644.91,2921.70,599.89,613.88,13.75,0000 0000 0000 0000 000000
2015-11-21 07:02:33,0.33,2.17,0.00,16.46,20.37,24.06,15.01,50.99,1023.49,2062.02,2877.19,2640.76,2917.49,599.94,613.54,13.80,0000 0000 0000 0000 000000
2015-11-21 07:07:35,0.35,2.18,0.00,16.44,20.39,24.21,15.01,51.22,1023.47,2062.00,2872.26,2636.26,2912.78,600.04,613.68,13.85,0000 0000 0000 0000 000000
2015-11-21 07:12:36,0.51,2.21,0.00,16.41,20.40,24.31,15.03,51.38,1023.21,2062.01,2865.67,2630.11,2905.85,599.86,613.36,13.90,0000 0000 0000 0000 000000
2015-11-21 07:17:37,0.38,2.23,0.00,16.39,20.42,24.34,15.12,51.20,1023.75,2062.00,2860.11,2624.40,2899.46,599.87,613.60,13.96,0000 0000 0000 0000 000000
2015-11-21 07:22:38,0.23,2.24,0.00,16.38,20.43,24.40,15.09,50.44,1024.21,2062.00,2856.56,2621.02,2895.69,599.87,614.08,14.01,0000 0000 0000 0000 000000
2015-11-21 07:27:40,0.19,2.25,0.00,16.34,20.44,24.40,15.08,50.16,1024.89,2061.98,2853.35,2618.47,2892.77,600.06,614.76,14.06,0000 0000 0000 0000 000000
2015-11-21 07:32:41,0.18,2.26,0.00,16.32,20.46,24.45,15.10,49.84,1024.61,2061.98,2850.56,2616.33,2890.28,600.02,614.71,14.11,0000 0000 0000 0000 000000
2015-11-21 07:37:43,0.19,2.27,0.00,16.32,20.47,24.45,15.01,49.76,1024.35,2061.98,2847.53,2613.88,2887.67,600.12,614.61,14.16,0000 0000 0000 0000 000000
2015-11-21 07:42:44,0.23,2.28,0.00,16.32,20.48,24.45,15.06,49.93,1024.42,2061.98,2844.10,2611.06,2884.59,600.07,614.55,14.21,0000 0000 0000 0000 000000
2015-11-21 07:47:45,0.16,2.29,0.00,16.32,20.49,24.48,15.00,49.66,1024.38,2061.97,2841.47,2609.02,2882.29,600.02,614.50,14.26,0000 0000 0000 0000 000000
2015-11-21 07:52:46,0.16,2.30,0.00,16.33,20.50,24.45,15.03,49.87,1024.01,2061.93,2838.83,2607.04,2880.15,599.88,614.15,14.31,0000 0000 0000 0000 000000
2015-11-21 07:57:48,0.14,2.31,0.00,16.34,20.52,24.49,15.08,49.80,1024.04,2061.84,2836.40,2605.08,2878.14,599.78,614.02,14.36,0000 0000 0000 0000 000000
2015-11-21 08:02:49,0.12,2.32,0.00,16.36,20.53,24.51,15.07,49.57,1024.24,2061.71,2834.17,2603.40,2876.24,600.06,614.32,14.41,0000 0000 0000 0000 000000
2015-11-21 08:07:50,0.16,2.32,0.00,16.37,20.54,24.54,15.03,50.12,1023.99,2061.58,2831.70,2601.45,2874.06,600.08,614.19,14.46,0000 0000 0000 0000 000000
2015-11-21 08:12:52,0.13,2.33,0.00,16.38,20.55,24.48,15.01,50.38,1023.95,2061.29,2829.08,2599.22,2871.56,599.78,613.88,14.51,0000 0000 0000 0000 000000
2015-11-21 08:17:53,0.15,2.34,0.00,16.38,20.57,24.52,15.06,50.23,1023.94,2061.07,2826.48,2597.21,2869.34,600.09,614.15,14.56,0000 0000 0000 0000 000000
2015-11-21 08:22:54,0.15,2.35,0.00,16.37,20.57,24.51,15.05,50.09,1024.14,2061.02,2823.92,2595.23,2867.02,599.80,614.00,14.61,0000 0000 0000 0000 000000
2015-11-21 08:27:55,0.15,2.35,0.00,16.37,20.57,24.50,15.11,49.84,1024.21,2061.01,2821.47,2593.43,2865.01,600.20,614.44,14.66,0000 0000 0000 0000 000000
2015-11-21 08:32:56,0.15,2.36,0.00,16.37,20.59,24.57,15.09,49.83,1024.33,2061.00,2819.05,2591.63,2862.98,600.39,614.68,14.71,0000 0000 0000 0000 000000
2015-11-21 08:37:57,0.14,2.37,0.00,16.38,20.59,24.56,15.00,49.69,1024.43,2061.00,2816.89,2589.88,2861.04,600.11,614.40,14.76,0000 0000 0000 0000 000000
2015-11-21 08:42:58,0.12,2.38,0.00,16.39,20.59,24.50,15.10,49.73,1024.44,2061.00,2814.97,2588.42,2859.34,600.13,614.55,14.81,0000 0000 0000 0000 000000
2015-11-21 08:48:00,0.18,2.38,0.00,16.40,20.60,24.55,15.10,50.33,1024.17,2061.00,2812.78,2586.50,2857.04,600.13,614.28,14.86,0000 0000 0000 0000 000000
2015-11-21 08:53:01,0.18,2.39,0.00,16.42,20.61,24.55,15.01,50.13,1023.96,2060.99,2809.95,2584.07,2854.25,599.81,613.88,14.91,0000 0000 0000 0000 000000
2015-11-21 08:58:02,0.12,2.40,0.00,16.42,20.62,24.56,15.10,50.05,1024.11,2060.99,2807.86,2582.54,2852.54,600.14,614.20,14.96,0000 0000 0000 0000 000000
2015-11-21 09:03:03,0.13,2.41,0.00,16.42,20.62,24.55,15.02,49.88,1024.19,2060.98,2805.72,2580.97,2850.70,600.23,614.35,15.01,0000 0000 0000 0000 000000
2015-11-21 09:08:05,0.14,2.41,0.00,16.42,20.62,24.60,15.07,49.98,1023.90,2060.98,2803.50,2579.32,2848.77,600.19,614.13,15.06,0000 0000 0000 0000 000000
2015-11-21 09:13:06,0.15,2.42,0.00,16.44,20.62,24.57,15.03,49.66,1023.94,2060.96,2801.16,2577.65,2846.88,600.14,614.08,15.11,0000 0000 0000 0000 000000
2015-11-21 09:18:07,0.14,2.43,0.00,16.44,20.64,24.61,15.12,49.93,1024.09,2060.95,2799.03,2575.92,2845.00,600.23,614.10,15.16,0000 0000 0000 0000 000000
2015-11-21 09:23:08,0.13,2.44,0.00,16.44,20.64,24.56,15.07,49.86,1024.32,2060.96,2796.76,2574.22,2843.01,600.16,614.36,15.21,0000 0000 0000 0000 000000
2015-11-21 09:28:09,0.12,2.44,0.00,16.45,20.64,24.61,15.07,49.56,1024.23,2060.88,2794.73,2572.44,2841.18,600.12,614.20,15.26,0000 0000 0000 0000 000000
2015-11-21 09:33:11,0.16,2.45,0.00,16.47,20.64,24.66,14.99,49.52,1024.25,2060.79,2792.42,2570.68,2839.29,599.95,613.95,15.31,0000 0000 0000 0000 000000
2015-11-21 09:38:12,0.12,2.46,0.00,16.49,20.65,24.61,15.04,49.40,1024.30,2060.70,2790.38,2568.97,2837.49,599.96,613.91,15.36,0000 0000 0000 0000 000000
2015-11-21 09:43:13,0.14,2.46,0.00,16.52,20.67,24.60,15.06,49.69,1023.95,2060.57,2788.23,2567.27,2835.54,599.95,613.72,15.41,0000 0000 0000 0000 000000
2015-11-21 09:48:15,0.13,2.47,0.00,16.54,20.67,24.58,15.06,49.73,1023.72,2060.38,2785.87,2565.12,2833.23,600.25,613.82,15.46,0000 0000 0000 0000 000000
2015-11-21 09:53:16,0.12,2.48,0.00,16.54,20.68,24.65,15.03,49.76,1023.43,2060.15,2783.71,2563.39,2831.25,600.12,613.66,15.51,0000 0000 0000 0000 000000
2015-11-21 09:58:17,0.14,2.48,0.00,16.54,20.69,24.61,15.09,50.05,1023.43,2060.13,2781.53,2561.86,2829.47,600.19,613.53,15.56,0000 0000 0000 0000 000000
2015-11-21 10:03:18,0.13,2.49,0.00,16.56,20.69,24.62,14.97,49.83,1023.45,2060.09,2779.26,2560.13,2827.49,600.28,613.74,15.61,0000 0000 0000 0000 000000
2015-11-21 10:08:19,0.14,2.50,0.00,16.57,20.70,24.63,15.05,49.88,1023.45,2060.06,2777.14,2558.65,2825.54,599.88,613.24,15.66,0000 0000 0000 0000 000000
2015-11-21 10:13:21,0.16,2.50,0.00,16.59,20.71,24.64,15.09,49.86,1023.48,2060.04,2774.91,2556.84,2823.33,600.26,613.59,15.71,0000 0000 0000 0000 000000
2015-11-21 10:18:22,0.18,2.51,0.00,16.59,20.72,24.63,15.00,49.84,1023.67,2060.02,2772.11,2554.60,2820.96,600.14,613.55,15.76,0000 0000 0000 0000 000000
2015-11-21 10:23:24,0.15,2.52,0.00,16.59,20.72,24.67,15.07,49.88,1023.82,2060.04,2769.87,2552.72,2818.85,600.14,613.68,15.81,0000 0000 0000 0000 000000
2015-11-21 10:28:25,0.16,2.53,0.00,16.59,20.73,24.66,15.00,49.94,1023.94,2060.02,2767.46,2550.79,2816.65,600.03,613.64,15.86,0000 0000 0000 0000 000000
2015-11-21 10:33:26,0.16,2.54,0.00,16.59,20.74,24.64,15.03,50.26,1023.73,2060.02,2765.06,2548.74,2814.55,599.92,613.35,15.91,0000 0000 0000 0000 000000
2015-11-21 10:38:28,0.18,2.55,0.00,16.59,20.74,24.73,15.06,50.52,1023.47,2060.00,2762.60,2546.58,2812.09,599.75,613.07,15.96,0000 0000 0000 0000 000000
2015-11-21 10:43:29,0.23,2.56,0.00,16.58,20.74,24.68,14.97,50.41,1023.51,2060.00,2759.79,2543.76,2809.23,599.62,612.97,16.01,0000 0000 0000 0000 000000
2015-11-21 10:48:30,0.19,2.57,0.00,16.56,20.74,24.67,15.05,50.42,1023.70,2060.00,2757.12,2541.30,2806.56,600.08,613.60,16.06,0000 0000 0000 0000 000000
2015-11-21 10:53:31,0.16,2.58,0.00,16.54,20.75,24.79,15.01,50.38,1023.46,2060.00,2754.97,2539.26,2804.24,599.84,613.31,16.11,0000 0000 0000 0000 000000
2015-11-21 10:58:32,0.17,2.59,0.00,16.52,20.75,24.76,15.04,50.47,1023.49,2060.00,2752.77,2537.04,2801.73,599.97,613.59,16.16,0000 0000 0000 0000 000000
2015-11-21 11:03:34,0.15,2.60,0.00,16.51,20.75,24.76,15.02,50.27,1023.77,2060.00,2750.50,2535.44,2799.47,599.99,613.67,16.21,0000 0000 0000 0000 000000
2015-11-21 11:08:35,0.15,2.60,0.00,16.49,20.75,24.78,15.03,50.27,1023.72,2060.00,2748.45,2533.64,2797.52,599.96,613.62,16.26,0000 0000 0000 0000 000000
2015-11-21 11:13:37,0.15,2.61,0.00,16.47,20.75,24.70,15.02,50.27,1023.92,2060.00,2746.62,2531.80,2795.71,600.06,613.90,16.31,0000 0000 0000 0000 000000
2015-11-21 11:18:38,0.14,2.62,0.00,16.45,20.74,24.74,15.00,50.06,1023.96,2060.00,2744.72,2530.15,2793.87,599.78,613.71,16.37,0000 0000 0000 0000 000000
2015-11-21 11:23:39,0.14,2.63,0.00,16.44,20.74,24.77,15.06,50.00,1024.25,2060.00,2742.72,2528.47,2791.89,600.03,614.14,16.42,0000 0000 0000 0000 000000
2015-11-21 11:28:41,0.13,2.63,0.00,16.44,20.74,24.77,15.05,49.97,1024.16,2059.99,2740.82,2526.83,2790.23,600.49,614.52,16.47,0000 0000 0000 0000 000000
2015-11-21 11:33:42,0.14,2.64,0.00,16.44,20.74,24.72,15.07,50.01,1023.96,2059.99,2738.79,2525.30,2788.40,600.25,614.07,16.52,0000 0000 0000 0000 000000
2015-11-21 11:38:43,0.14,2.65,0.00,16.44,20.74,24.73,14.99,49.90,1023.94,2059.99,2736.79,2523.61,2786.56,599.90,613.84,16.57,0000 0000 0000 0000 000000
2015-11-21 11:43:45,0.12,2.65,0.00,16.44,20.74,24.72,15.08,49.98,1023.61,2059.99,2734.91,2522.30,2784.88,600.25,613.98,16.62,0000 0000 0000 0000 000000
2015-11-21 11:48:46,0.22,2.66,0.00,16.44,20.74,24.76,15.07,50.66,1023.45,2059.99,2732.35,2519.89,2782.43,599.90,613.67,16.67,0000 0000 0000 0000 000000
2015-11-21 11:53:47,0.21,2.67,0.00,16.42,20.74,24.74,14.93,50.66,1023.36,2059.99,2729.66,2517.33,2779.66,599.81,613.48,16.72,0000 0000 0000 0000 000000
2015-11-21 11:58:48,0.18,2.68,0.00,16.42,20.74,24.76,15.02,50.73,1023.00,2059.99,2727.06,2515.01,2777.02,599.76,613.20,16.77,0000 0000 0000 0000 000000
2015-11-21 12:03:50,0.15,2.69,0.00,16.38,20.74,24.76,15.02,50.51,1022.96,2059.99,2724.78,2513.13,2774.91,599.84,613.30,16.82,0000 0000 0000 0000 000000
2015-11-21 12:08:51,0.13,2.70,0.00,16.37,20.72,24.75,15.02,50.21,1023.19,2059.99,2722.88,2511.59,2773.21,599.88,613.64,16.87,0000 0000 0000 0000 000000
2015-11-21 12:13:52,0.09,2.70,0.00,16.34,20.72,24.73,15.05,50.39,1023.07,2059.99,2721.49,2510.53,2771.87,599.92,613.57,16.92,0000 0000 0000 0000 000000
2015-11-21 12:18:53,0.11,2.71,0.00,16.33,20.72,24.73,15.03,50.06,1022.65,2059.99,2719.83,2509.24,2770.47,599.69,613.12,16.97,0000 0000 0000 0000 000000
2015-11-21 12:23:54,0.11,2.71,0.00,16.32,20.72,24.71,15.07,50.24,1022.92,2060.00,2718.20,2507.93,2769.07,599.77,613.35,17.02,0000 0000 0000 0000 000000
2015-11-21 12:28:56,0.12,2.72,0.00,16.30,20.70,24.70,15.11,50.42,1022.59,2060.00,2716.41,2506.61,2767.57,600.15,613.59,17.07,0000 0000 0000 0000 000000
2015-11-21 12:33:57,0.12,2.73,0.00,16.28,20.69,24.67,14.95,50.08,1022.48,2060.00,2714.60,2505.07,2765.86,599.89,613.26,17.12,0000 0000 0000 0000 000000
2015-11-21 12:38:58,0.17,2.74,0.00,16.27,20.69,24.66,15.05,50.26,1022.48,2060.01,2712.45,2503.02,2763.76,599.90,613.47,17.17,0000 0000 0000 0000 000000
2015-11-21 12:43:59,0.11,2.74,0.00,16.26,20.69,24.66,15.11,50.27,1022.51,2060.03,2710.93,2501.78,2762.42,600.15,613.61,17.22,0000 0000 0000 0000 000000
2015-11-21 12:49:01,0.10,2.75,0.00,16.24,20.68,24.69,14.99,50.09,1022.65,2060.02,2709.45,2500.58,2760.99,599.85,613.36,17.27,0000 0000 0000 0000 000000
2015-11-21 12:54:02,0.09,2.75,0.00,16.24,20.67,24.72,15.11,50.04,1022.89,2060.02,2708.04,2499.31,2759.83,600.41,614.08,17.32,0000 0000 0000 0000 000000